This demonstration page uses our WeatherBlox Daily Observations layout. Learn more.

Left ArrowRight Arrow

44.8408, -93.29828

Hourly Observations for September 1, 2020

Temp ( °F °C ) Dew Point ( °F °C ) Humidity (%) Winds ( mph kmh ) Pressure ( in mb ) Visibility ( mi km ) Precip ( " mm )
12:53 am 00:53 Partly Cloudy 60 15.6 52 11.1 75 75 SW 6 9 29.91 1013 10 16 0.00 0.00
1:53 am 01:53 Partly Cloudy 59 15 52 11.1 78 78 SSW 3 6 29.91 1013 10 16 0.00 0.00
2:53 am 02:53 Partly Cloudy 60 15.6 52 11.1 75 75 Calm 29.91 1013 10 16 0.00 0.00
3:53 am 03:53 Cloudy 60 15.6 52 11.1 75 75 SW 3 6 29.91 1013 10 16 0.00 0.00
4:53 am 04:53 Cloudy 60 15.6 52 11.1 75 75 S 5 7 29.89 1012 10 16 0.00 0.00
5:53 am 05:53 Cloudy 58 14.4 54 12.2 87 87 S 6 9 29.89 1012 10 16 0.00 0.00
6:53 am 06:53 Mostly Cloudy 58 14.4 53 11.7 84 84 SE 3 6 29.90 1012 10 16 0.00 0.00
7:53 am 07:53 Cloudy 59 15 53 11.7 81 81 SE 3 6 29.89 1012 10 16 0.00 0.00
8:53 am 08:53 Mostly Cloudy 61 16.1 51 10.6 70 70 SSW 7 11 29.89 1012 10 16 0.00 0.00
9:53 am 09:53 Cloudy 63 17.2 49 9.4 60 60 SW 8 13 29.89 1012 10 16 0.00 0.00
10:53 am 10:53 Mostly Cloudy 66 18.9 48 8.9 52 52 SW 10 17 29.88 1012 10 16 0.00 0.00
11:53 am 11:53 Mostly Cloudy 68 20 47 8.3 47 47 S 13 20 29.86 1011 10 16 0.00 0.00
12:53 pm 12:53 Mostly Cloudy 71 21.7 48 8.9 44 44 SW 13 20 29.84 1011 10 16 0.00 0.00
1:53 pm 13:53 Cloudy 70 21.1 46 7.8 42 42 SSW 9 15 29.82 1010 10 16 0.00 0.00
2:53 pm 14:53 Cloudy 70 21.1 45 7.2 41 41 S 7 11 29.79 1009 10 16 0.00 0.00
3:53 pm 15:53 Cloudy 70 21.1 48 8.9 46 46 SSW 9 15 29.77 1008 10 16 0.00 0.00
4:53 pm 16:53 Cloudy 69 20.6 50 10 51 51 S 13 20 29.75 1007 10 16 0.00 0.00
5:53 pm 17:53 Mostly Cloudy 70 21.1 51 10.6 51 51 S 13 20 29.72 1007 10 16 0.00 0.00
6:53 pm 18:53 Mostly Cloudy 69 20.6 52 11.1 55 55 S 12 19 29.71 1006 10 16 0.00 0.00
7:53 pm 19:53 Mostly Cloudy 68 20 53 11.7 59 59 S 8 13 29.69 1005 10 16 0.00 0.00
8:53 pm 20:53 Partly Cloudy 66 18.9 53 11.7 63 63 S 8 13 29.69 1005 10 16 0.00 0.00
9:53 pm 21:53 Mostly Clear 65 18.3 53 11.7 66 66 S 8 13 29.69 1005 10 16 0.00 0.00
10:53 pm 22:53 Clear 65 18.3 54 12.2 68 68 SSW 12 19 29.68 1005 10 16 0.00 0.00
11:53 pm 23:53 Mostly Clear 65 18.3 54 12.2 68 68 SW 12 19 29.67 1005 10 16 0.00 0.00

Powered by AerisWeather